• In Czech Republic
  • List of Countries
  • For 7 days
  • Water Temperature
  • Satellite Maps
  • Weather Map
  • Weather Widgets
  • user-avatar
    Login

    Hourly Weather Igls

    Today, 26 September, Tuesday

    Time Temperature Precipitation Wind Pressure Humidity
    00:00 +8°C° 0 mm 1 mps 686 mmHg 89%
    01:00 +8°C° 0 mm 1 mps 686 mmHg 89%
    02:00 +8°C° 0 mm 1 mps 686 mmHg 89%
    03:00 +7°C° 0 mm 1 mps 686 mmHg 89%
    04:00 +7°C° 0 mm 1 mps 686 mmHg 89%
    05:00 +7°C° 0 mm 1 mps 687 mmHg 88%
    06:00 +8°C° 0 mm 1 mps 687 mmHg 87%
    07:00 +8°C° 0 mm 1 mps 687 mmHg 86%
    08:00 +11°C° 0 mm 1 mps 687 mmHg 77%
    09:00 +14°C° 0 mm 1 mps 688 mmHg 69%
    10:00 +16°C° 0 mm 1 mps 688 mmHg 60%
    11:00 +18°C° 0 mm 1 mps 688 mmHg 58%
    12:00 +18°C° 0 mm 1 mps 688 mmHg 56%
    13:00 +19°C° 0 mm 1 mps 688 mmHg 54%
    14:00 +19°C° 0.1 mm 1 mps 688 mmHg 58%
    15:00 +18°C° 0.1 mm 1 mps 688 mmHg 61%
    16:00 +18°C° 0.1 mm 1 mps 688 mmHg 65%
    17:00 +15°C° 0.1 mm 1 mps 688 mmHg 73%
    18:00 +13°C° 0.1 mm 1 mps 688 mmHg 81%
    19:00 +10°C° 0.1 mm 0 mps 688 mmHg 89%
    20:00 +11°C° 0 mm 1 mps 688 mmHg 89%
    21:00 +10°C° 0 mm 1 mps 688 mmHg 89%
    22:00 +10°C° 0 mm 1 mps 688 mmHg 88%
    23:00 +10°C° 0 mm 1 mps 688 mmHg 88%

    Tomorrow, 27 September, Wednesday

    Time Temperature Precipitation Wind Pressure Humidity
    00:00 +10°C° 0 mm 1 mps 688 mmHg 88%
    01:00 +9°C° 0 mm 1 mps 688 mmHg 87%
    02:00 +9°C° 0 mm 1 mps 688 mmHg 87%
    03:00 +9°C° 0 mm 1 mps 688 mmHg 87%
    04:00 +9°C° 0 mm 1 mps 688 mmHg 86%
    05:00 +9°C° 0 mm 1 mps 688 mmHg 86%
    06:00 +10°C° 0 mm 1 mps 689 mmHg 85%
    07:00 +10°C° 0 mm 1 mps 689 mmHg 84%
    08:00 +12°C° 0 mm 1 mps 689 mmHg 76%
    09:00 +15°C° 0 mm 1 mps 690 mmHg 68%
    10:00 +18°C° 0 mm 1 mps 690 mmHg 60%
    11:00 +19°C° 0 mm 1 mps 690 mmHg 58%
    12:00 +19°C° 0 mm 1 mps 690 mmHg 56%
    13:00 +20°C° 0 mm 1 mps 690 mmHg 54%
    14:00 +19°C° 0.1 mm 2 mps 690 mmHg 57%
    15:00 +18°C° 0.1 mm 2 mps 689 mmHg 60%
    16:00 +18°C° 0.1 mm 2 mps 689 mmHg 63%
    17:00 +16°C° 0 mm 1 mps 689 mmHg 71%
    18:00 +13°C° 0 mm 1 mps 689 mmHg 80%
    19:00 +11°C° 0 mm 1 mps 689 mmHg 88%
    20:00 +11°C° 0 mm 1 mps 689 mmHg 88%
    21:00 +11°C° 0 mm 1 mps 689 mmHg 88%
    22:00 +9°C° 0 mm 2 mps 690 mmHg 87%
    23:00 +9°C° 0 mm 2 mps 690 mmHg 87%

    Day after tomorrow, 28 September, Thursday

    Time Temperature Precipitation Wind Pressure Humidity
    00:00 +9°C° 0 mm 2 mps 690 mmHg 87%
    01:00 +9°C° 0 mm 2 mps 690 mmHg 86%
    02:00 +10°C° 0 mm 1 mps 690 mmHg 86%
    03:00 +9°C° 0 mm 1 mps 690 mmHg 86%
    04:00 +9°C° 0 mm 1 mps 689 mmHg 86%
    05:00 +10°C° 0 mm 1 mps 690 mmHg 85%
    06:00 +10°C° 0 mm 1 mps 690 mmHg 84%
    07:00 +10°C° 0 mm 1 mps 690 mmHg 83%
    08:00 +13°C° 0 mm 1 mps 691 mmHg 74%
    09:00 +16°C° 0 mm 1 mps 691 mmHg 66%
    10:00 +18°C° 0 mm 0 mps 692 mmHg 57%
    11:00 +20°C° 0 mm 1 mps 691 mmHg 56%
    12:00 +20°C° 0 mm 1 mps 691 mmHg 55%
    13:00 +21°C° 0 mm 1 mps 691 mmHg 54%
    14:00 +20°C° 0.3 mm 1 mps 691 mmHg 59%
    15:00 +20°C° 0.3 mm 1 mps 690 mmHg 65%
    16:00 +19°C° 0.3 mm 1 mps 690 mmHg 70%
    17:00 +16°C° 0.5 mm 1 mps 690 mmHg 77%
    18:00 +15°C° 0.5 mm 1 mps 690 mmHg 84%
    19:00 +12°C° 0.5 mm 0 mps 690 mmHg 91%
    20:00 +13°C° 0.2 mm 1 mps 690 mmHg 91%
    21:00 +12°C° 0.2 mm 1 mps 690 mmHg 92%
    22:00 +12°C° 0.2 mm 1 mps 690 mmHg 92%
    23:00 +12°C° 0.1 mm 1 mps 690 mmHg 92%

    29 September, Friday

    Time Temperature Precipitation Wind Pressure Humidity
    00:00 +12°C° 0.1 mm 1 mps 690 mmHg 91%
    01:00 +12°C° 0.1 mm 1 mps 690 mmHg 91%
    02:00 +11°C° 0 mm 1 mps 690 mmHg 91%
    03:00 +11°C° 0 mm 1 mps 689 mmHg 90%
    04:00 +10°C° 0 mm 1 mps 689 mmHg 90%
    05:00 +10°C° 0 mm 1 mps 689 mmHg 89%
    06:00 +11°C° 0 mm 1 mps 689 mmHg 88%
    07:00 +11°C° 0 mm 1 mps 689 mmHg 86%
    08:00 +13°C° 0 mm 1 mps 689 mmHg 77%
    09:00 +15°C° 0 mm 1 mps 690 mmHg 69%
    10:00 +19°C° 0 mm 1 mps 690 mmHg 60%
    11:00 +20°C° 0 mm 1 mps 690 mmHg 57%
    12:00 +20°C° 0 mm 1 mps 690 mmHg 55%
    13:00 +21°C° 0 mm 1 mps 690 mmHg 52%
    14:00 +20°C° 0.1 mm 1 mps 689 mmHg 56%
    15:00 +20°C° 0.1 mm 1 mps 689 mmHg 61%
    16:00 +18°C° 0.1 mm 2 mps 689 mmHg 65%
    17:00 +16°C° 0.1 mm 1 mps 688 mmHg 74%
    18:00 +14°C° 0.1 mm 1 mps 688 mmHg 82%
    19:00 +12°C° 0.1 mm 1 mps 688 mmHg 91%
    20:00 +12°C° 0 mm 1 mps 688 mmHg 92%
    21:00 +11°C° 0 mm 1 mps 688 mmHg 92%
    22:00 +10°C° 0 mm 1 mps 688 mmHg 93%
    23:00 +10°C° 0 mm 1 mps 688 mmHg 92%

    30 September, Saturday

    Time Temperature Precipitation Wind Pressure Humidity
    00:00 +10°C° 0 mm 1 mps 687 mmHg 92%
    01:00 +10°C° 0 mm 1 mps 687 mmHg 91%
    02:00 +10°C° 0 mm 1 mps 687 mmHg 90%
    03:00 +10°C° 0 mm 1 mps 687 mmHg 89%
    04:00 +10°C° 0 mm 1 mps 686 mmHg 88%
    05:00 +10°C° 0 mm 1 mps 686 mmHg 86%
    06:00 +10°C° 0 mm 1 mps 686 mmHg 84%
    07:00 +11°C° 0 mm 1 mps 686 mmHg 83%
    08:00 +13°C° 0 mm 1 mps 686 mmHg 74%
    09:00 +14°C° 0 mm 0 mps 687 mmHg 65%
    10:00 +17°C° 0 mm 0 mps 687 mmHg 57%
    11:00 +17°C° 0 mm 0 mps 687 mmHg 55%
    12:00 +20°C° 0 mm 1 mps 686 mmHg 54%
    13:00 +20°C° 0 mm 1 mps 686 mmHg 52%
    14:00 +19°C° 0.3 mm 1 mps 686 mmHg 60%
    15:00 +18°C° 0.3 mm 1 mps 685 mmHg 67%
    16:00 +16°C° 0.3 mm 1 mps 685 mmHg 75%
    17:00 +15°C° 0.6 mm 1 mps 685 mmHg 82%
    18:00 +14°C° 0.6 mm 1 mps 685 mmHg 88%
    19:00 +12°C° 0.6 mm 0 mps 685 mmHg 95%
    20:00 +12°C° 0.7 mm 0 mps 685 mmHg 96%
    21:00 +12°C° 0.7 mm 0 mps 685 mmHg 97%
    22:00 +11°C° 0.7 mm 0 mps 685 mmHg 98%
    23:00 +11°C° 0.9 mm 0 mps 685 mmHg 98%

    1 October, Sunday

    Time Temperature Precipitation Wind Pressure Humidity
    00:00 +11°C° 0.9 mm 0 mps 685 mmHg 98%
    01:00 +11°C° 0.9 mm 0 mps 685 mmHg 98%
    02:00 +12°C° 0.9 mm 1 mps 685 mmHg 98%
    03:00 +12°C° 0.9 mm 1 mps 685 mmHg 98%
    04:00 +12°C° 0.9 mm 1 mps 685 mmHg 98%
    05:00 +12°C° 0.8 mm 1 mps 685 mmHg 98%
    06:00 +12°C° 0.8 mm 1 mps 685 mmHg 98%
    07:00 +11°C° 0.8 mm 1 mps 685 mmHg 98%
    08:00 +12°C° 0.5 mm 1 mps 685 mmHg 96%
    09:00 +12°C° 0.5 mm 1 mps 685 mmHg 94%
    10:00 +13°C° 0.5 mm 1 mps 685 mmHg 92%
    11:00 +13°C° 0.6 mm 1 mps 685 mmHg 90%
    12:00 +13°C° 0.6 mm 1 mps 685 mmHg 88%
    13:00 +14°C° 0.6 mm 1 mps 685 mmHg 86%
    14:00 +13°C° 0.7 mm 1 mps 684 mmHg 87%
    15:00 +13°C° 0.7 mm 1 mps 684 mmHg 88%
    16:00 +13°C° 0.7 mm 1 mps 684 mmHg 90%
    17:00 +12°C° 0.5 mm 1 mps 684 mmHg 92%
    18:00 +12°C° 0.5 mm 1 mps 684 mmHg 94%
    19:00 +10°C° 0.5 mm 0 mps 684 mmHg 97%
    20:00 +10°C° 0.4 mm 0 mps 684 mmHg 97%
    21:00 +10°C° 0.4 mm 0 mps 684 mmHg 97%
    22:00 +10°C° 0.4 mm 0 mps 684 mmHg 97%
    23:00 +9°C° 0.4 mm 0 mps 684 mmHg 97%
    Show more